Wind_Speed
55 53 53 54 55 56 59 62 63 63 62 61 59 59 61 61 61 60 59 56 55 54 52 49 48 48 47 46 46 48 48 48 50 53 53 51 49 55
55 55 56 58 58 59 61 63 64 64 63 59 55 54 54 56 56 56 55 53 53 53 49 48 48 46 44 43 44 46 46 46 49 51 53 53 52 55
57 57 57 58 59 61 62 63 63 62 61 56 48 42 41 45 45 46 46 45 45 45 42 41 43 44 42 39 42 41 39 41 46 50 53 53 50 48
57 57 58 59 59 60 60 60 59 56 52 45 41 37 38 39 39 41 40 40 39 37 33 34 37 39 39 39 40 40 38 39 43 47 49 49 46 43
56 58 59 60 58 55 52 48 46 45 43 39 35 35 36 36 37 37 35 32 28 25 25 28 32 35 37 38 39 38 37 38 39 40 42 40 38 37
57 58 57 54 48 43 39 37 35 34 32 30 28 29 30 31 31 28 22 18 16 17 20 23 25 28 31 34 35 35 36 37 36 34 36 34 31 34
54 52 49 44 41 41 38 33 28 25 22 20 21 22 25 27 23 17 13 11 10 11 14 18 20 23 26 29 30 30 33 38 39 36 35 36 33 32
46 44 43 42 42 41 34 28 23 19 17 17 18 21 23 18 13 11 7 8 9 10 13 16 19 21 22 24 28 31 30 33 40 42 41 41 39 38
40 40 38 35 35 31 26 23 20 18 17 17 17 17 13 11 9 5 4 6 9 11 12 13 15 19 22 25 27 28 30 34 38 42 44 44 41 39
36 34 31 30 26 21 19 17 14 13 13 13 10 8 8 7 5 4 5 8 9 10 10 11 13 17 21 24 26 29 32 37 42 47 48 48 47 46
32 30 27 24 19 14 13 12 10 9 8 4 3 3 3 3 4 4 6 8 9 6 6 10 16 21 24 24 22 22 25 29 33 38 45 48 47 47
28 28 24 19 16 12 10 7 5 3 4 5 3 2 1 3 6 8 8 7 4 3 7 11 15 18 15 13 16 14 14 21 27 31 33 36 37 42
24 24 23 19 15 9 4 4 8 8 7 7 8 8 7 6 7 8 7 3 1 4 8 10 9 6 9 9 8 8 8 5 9 19 29 33 33 37
21 19 17 12 4 5 9 12 11 10 11 11 9 6 8 10 10 7 3 3 4 7 8 5 3 2 6 7 7 10 12 18 21 23 30 32 33 38
18 16 11 7 10 13 14 13 13 12 11 9 7 8 10 9 7 5 4 4 5 6 2 6 9 7 9 11 12 23 25 26 27 30 31 32 37 42
16 9 10 12 14 14 13 12 11 10 8 6 8 10 9 8 7 6 5 4 5 4 5 9 10 14 18 19 18 20 21 22 23 25 26 28 31 34
9 9 11 12 12 10 10 11 11 9 7 6 8 10 9 7 7 8 7 8 10 10 11 13 18 20 23 22 23 22 22 24 25 24 24 25 27 28
9 10 12 12 13 13 14 14 12 11 9 9 12 13 10 9 10 10 9 10 13 16 16 16 17 23 27 23 22 25 27 28 26 25 27 27 26 25
10 11 11 13 15 15 14 13 12 12 11 13 15 13 11 12 12 11 10 11 15 18 20 23 27 28 25 21 22 24 26 27 25 30 33 28 24 28
11 11 12 14 14 12 13 13 12 12 13 14 14 13 14 15 14 13 13 16 21 24 24 23 25 24 25 25 23 21 24 26 26 27 26 26 27 28
12 13 15 15 15 16 17 16 13 13 13 14 14 14 17 18 18 19 21 24 26 26 26 26 28 29 26 22 22 23 25 26 26 25 24 25 28 26
13 15 16 16 16 18 18 16 14 14 16 15 13 15 19 21 21 21 21 24 26 25 24 22 22 29 33 30 29 30 29 27 26 23 23 24 27 29
14 15 16 16 17 17 17 17 17 15 14 14 16 20 22 21 20 21 21 23 26 26 24 21 18 19 25 27 24 24 22 18 17 19 20 19 20 20
Wind_Direction
293 292 290 288 288 289 289 287 286 285 283 282 281 279 278 277 275 273 272 269 269 270 270 264 257 253 256 257 250 241 238 239 239 238 237 240 246 253
294 292 291 291 291 291 290 289 288 286 284 283 281 278 276 274 272 271 269 270 270 270 266 258 250 248 253 253 242 235 235 237 238 239 238 240 249 256
294 293 292 293 294 295 293 291 289 287 284 284 281 277 275 273 272 271 271 270 270 269 263 253 244 245 250 245 235 233 235 237 239 239 239 241 246 251
296 297 298 298 297 295 292 289 287 284 284 285 284 278 273 273 274 275 274 272 269 263 252 247 245 245 245 236 233 234 235 237 237 235 236 238 241 239
301 302 301 299 297 295 294 293 291 288 283 279 278 274 273 275 278 280 280 275 264 252 249 248 244 240 233 231 233 235 235 235 234 232 232 235 235 229
305 303 300 297 295 295 297 297 298 295 288 277 270 272 273 275 278 281 277 264 256 252 247 239 235 230 230 233 236 236 234 233 231 230 227 224 220 214
305 302 299 295 292 295 297 294 296 296 289 278 273 272 272 276 278 272 267 270 254 232 221 224 225 227 233 237 239 238 237 234 230 229 225 219 216 210
305 303 302 296 293 295 291 288 289 288 283 281 276 273 275 274 262 263 271 263 243 229 225 229 230 235 240 242 243 242 240 233 231 231 225 224 226 226
307 308 307 302 297 293 284 282 284 282 283 283 278 276 272 254 245 237 239 257 246 243 238 241 249 253 252 249 246 246 243 240 237 233 231 231 228 223
310 312 310 307 300 290 279 276 284 285 285 284 280 268 247 235 209 207 239 232 233 234 234 245 257 262 262 259 258 255 251 247 244 240 235 233 232 228
316 316 315 313 308 293 280 279 279 278 279 264 203 219 199 178 176 206 208 199 203 210 239 261 268 270 271 271 262 257 252 254 251 239 233 230 229 224
322 321 321 316 311 297 284 267 245 227 163 156 188 244 199 154 168 182 183 172 170 238 261 269 272 273 262 244 239 246 256 260 251 234 221 213 215 212
322 320 320 319 307 280 238 154 140 140 141 137 128 120 121 131 141 137 133 129 294 281 284 292 300 281 218 236 258 255 253 215 193 200 200 197 196 195
324 323 329 336 333 134 128 125 125 130 130 121 118 119 121 124 119 108 87 12 335 301 305 322 23 184 205 213 196 164 152 141 128 133 151 165 170 169
334 341 356 33 89 106 111 116 119 122 120 112 111 122 122 115 100 82 46 4 327 315 342 99 95 121 132 136 137 140 132 133 138 140 142 149 156 162
344 19 60 81 95 104 109 117 128 130 122 105 105 119 119 108 93 79 58 53 99 85 112 112 97 113 115 121 130 133 127 125 126 133 140 150 158 162
11 75 83 95 102 106 112 114 115 117 116 114 115 122 123 107 89 78 76 120 128 108 97 98 99 108 115 115 120 123 124 124 125 128 135 145 156 160
66 92 100 106 111 115 117 112 101 96 94 104 114 118 112 99 89 90 99 116 120 120 110 104 105 110 115 110 118 123 127 129 130 131 135 142 147 151
82 100 110 118 118 114 113 111 102 99 103 110 113 111 103 96 94 92 94 111 119 121 115 111 116 118 122 118 132 134 134 133 131 137 137 134 141 152
92 102 116 124 120 114 111 105 96 94 100 110 112 105 101 101 98 100 112 121 122 120 116 114 115 111 109 110 114 116 123 125 116 113 118 128 134 134
105 112 120 118 114 113 113 104 94 96 102 108 110 105 109 110 102 107 116 122 122 118 113 111 110 107 104 106 117 123 124 115 109 113 122 137 146 143
116 118 117 112 112 118 117 106 101 101 100 102 102 113 118 110 101 106 117 124 125 123 122 119 116 117 114 116 120 123 124 123 122 128 135 140 149 159
125 124 117 108 109 120 113 101 104 99 93 96 109 125 127 116 106 105 116 128 132 130 129 128 124 123 123 123 128 134 134 131 127 132 141 148 155 162
Height
5654 5649 5643 5637 5632 5627 5622 5617 5612 5608 5606 5600 5595 5592 5590 5589 5588 5587 5586 5587 5587 5588 5589 5590 5591 5593 5596 5599 5603 5608 5612 5618 5624 5630 5636 5643 5650 5658
5640 5635 5630 5624 5618 5612 5606 5599 5592 5587 5584 5580 5575 5572 5570 5569 5568 5567 5565 5567 5569 5569 5571 5573 5574 5577 5582 5585 5590 5595 5601 5606 5612 5617 5623 5629 5636 5641
5627 5620 5614 5608 5601 5594 5586 5579 5573 5567 5563 5560 5556 5555 5553 5551 5550 5549 5549 5551 5552 5552 5554 5555 5558 5563 5568 5573 5578 5584 5589 5595 5600 5605 5610 5616 5621 5625
5612 5605 5597 5590 5584 5576 5568 5561 5555 5548 5546 5545 5541 5541 5540 5538 5538 5537 5537 5537 5537 5538 5540 5542 5547 5552 5557 5562 5568 5574 5578 5583 5587 5592 5597 5603 5608 5611
5595 5587 5580 5573 5567 5559 5552 5546 5539 5534 5532 5531 5530 5529 5528 5528 5527 5526 5526 5525 5525 5527 5529 5533 5537 5542 5547 5553 5559 5564 5568 5572 5577 5582 5587 5592 5597 5600
5579 5571 5564 5557 5551 5544 5539 5534 5529 5524 5521 5520 5520 5520 5519 5518 5518 5518 5517 5516 5518 5520 5522 5526 5530 5534 5540 5545 5550 5554 5558 5562 5568 5574 5579 5585 5589 5594
5564 5556 5549 5543 5537 5532 5528 5524 5520 5516 5513 5512 5513 5513 5512 5511 5511 5511 5511 5512 5514 5517 5519 5522 5526 5529 5533 5536 5541 5545 5548 5553 5559 5565 5571 5577 5583 5589
5551 5544 5537 5531 5526 5521 5517 5515 5512 5510 5508 5507 5507 5506 5505 5505 5506 5507 5508 5510 5512 5514 5516 5519 5521 5524 5527 5531 5533 5536 5539 5543 5548 5554 5561 5568 5575 5582
5540 5534 5527 5521 5515 5511 5508 5507 5506 5505 5504 5502 5502 5501 5501 5501 5503 5505 5507 5509 5510 5512 5513 5515 5517 5519 5521 5523 5524 5527 5530 5532 5536 5541 5548 5556 5564 5572
5532 5525 5518 5511 5506 5503 5501 5501 5501 5500 5499 5498 5499 5498 5499 5500 5502 5504 5506 5508 5509 5510 5511 5512 5512 5513 5513 5514 5516 5518 5519 5520 5522 5526 5533 5541 5551 5560
5524 5517 5511 5505 5500 5497 5496 5497 5497 5497 5497 5497 5498 5498 5499 5501 5502 5504 5505 5506 5508 5509 5509 5510 5509 5508 5507 5507 5507 5507 5507 5508 5509 5510 5517 5526 5536 5546
5517 5511 5505 5500 5496 5494 5493 5493 5494 5496 5497 5498 5499 5499 5500 5501 5502 5503 5505 5506 5508 5508 5508 5507 5505 5503 5502 5502 5502 5503 5501 5499 5497 5499 5505 5514 5524 5534
5513 5507 5501 5496 5493 5491 5491 5492 5494 5497 5498 5500 5501 5501 5502 5502 5503 5505 5507 5508 5508 5507 5506 5504 5501 5499 5499 5499 5500 5499 5497 5494 5491 5490 5497 5509 5520 5530
5509 5504 5498 5493 5490 5490 5492 5494 5497 5499 5501 5502 5503 5504 5504 5504 5506 5508 5508 5507 5506 5505 5503 5500 5498 5498 5499 5499 5500 5499 5497 5497 5497 5498 5503 5512 5521 5530
5506 5502 5498 5495 5493 5494 5496 5499 5501 5502 5504 5505 5506 5506 5507 5508 5509 5510 5509 5507 5506 5504 5501 5501 5500 5500 5501 5501 5501 5503 5503 5505 5507 5510 5514 5521 5525 5532
5506 5502 5500 5499 5499 5500 5502 5504 5505 5506 5507 5508 5508 5509 5510 5511 5511 5511 5510 5509 5508 5506 5504 5503 5503 5503 5504 5506 5508 5509 5512 5516 5518 5521 5525 5530 5536 5542
5506 5504 5503 5503 5504 5505 5506 5507 5508 5509 5509 5510 5511 5512 5513 5513 5513 5513 5513 5513 5513 5511 5509 5509 5508 5507 5509 5511 5513 5516 5518 5522 5526 5530 5535 5540 5545 5553
5508 5507 5507 5507 5508 5508 5509 5511 5511 5511 5512 5512 5514 5515 5516 5516 5516 5516 5516 5517 5517 5516 5515 5515 5514 5514 5517 5520 5520 5522 5525 5529 5533 5538 5543 5549 5555 5561
5511 5510 5511 5511 5512 5512 5513 5514 5514 5514 5515 5516 5518 5519 5519 5519 5519 5519 5519 5519 5519 5521 5521 5523 5523 5523 5525 5527 5529 5531 5533 5537 5541 5545 5551 5558 5564 5569
5513 5513 5514 5515 5515 5516 5517 5518 5518 5518 5519 5520 5522 5523 5523 5523 5524 5523 5523 5523 5525 5528 5530 5532 5533 5534 5535 5536 5538 5540 5543 5546 5551 5555 5560 5567 5573 5579
5515 5516 5517 5519 5520 5520 5521 5522 5522 5522 5522 5523 5525 5526 5528 5529 5528 5528 5528 5529 5532 5536 5539 5541 5542 5543 5545 5547 5549 5551 5556 5560 5563 5566 5571 5576 5581 5587
5518 5520 5522 5523 5524 5525 5525 5526 5526 5527 5527 5528 5529 5530 5532 5533 5533 5533 5534 5536 5539 5543 5547 5550 5551 5551 5553 5557 5561 5564 5567 5570 5574 5577 5581 5585 5589 5593
5522 5524 5526 5528 5529 5530 5530 5531 5532 5532 5532 5533 5534 5536 5538 5539 5539 5539 5540 5543 5547 5550 5553 5555 5558 5560 5562 5564 5568 5572 5575 5579 5581 5584 5589 5592 5596 5599